| time (UTC) | temp C | wind direction | speed KPH | gust KPH | rain 1hr cm | rain 24hr cm | rain mn cm | humidity % | barometer mb |
| 20260503033027 | 2 | 214 | 8.0 | 0.0 | 0.00 | 0.00 | 0.00 | 63 | 987.2 |
| 20260503031510 | 3 | 209 | 8.0 | 0.0 | 0.00 | 0.00 | 0.00 | 63 | 987.3 |
| 20260503030031 | 3 | 210 | 8.0 | 0.0 | 0.00 | 0.00 | 0.00 | 63 | 987.3 |
| 20260503024509 | 3 | 220 | 8.0 | 0.0 | 0.00 | 0.00 | 0.00 | 60 | 987.8 |
| 20260503023027 | 3 | 225 | 8.0 | 0.0 | 0.00 | 0.00 | 0.00 | 64 | 987.7 |
| 20260503021510 | 3 | 228 | 9.7 | 0.0 | 0.00 | 0.00 | 0.00 | 64 | 987.7 |
| 20260503020030 | 3 | 231 | 8.0 | 0.0 | 0.00 | 0.00 | 0.00 | 64 | 987.7 |
| 20260503014509 | 4 | 236 | 8.0 | 0.0 | 0.00 | 0.00 | 0.00 | 62 | 987.1 |
| 20260503013026 | 4 | 240 | 9.7 | 0.0 | 0.00 | 0.00 | 0.00 | 62 | 987.1 |
| 20260503011509 | 5 | 233 | 8.0 | 0.0 | 0.00 | 0.00 | 0.00 | 62 | 987.1 |
| 20260503010029 | 5 | 237 | 9.7 | 0.0 | 0.00 | 0.00 | 0.00 | 62 | 987.1 |
| 20260503004509 | 5 | 236 | 8.0 | 0.0 | 0.00 | 0.00 | 0.00 | 52 | 987.8 |
| 20260503003020 | 5 | 227 | 6.4 | 0.0 | 0.00 | 0.00 | 0.00 | 52 | 988.1 |
| 20260503001510 | 6 | 236 | 6.4 | 0.0 | 0.00 | 0.00 | 0.00 | 52 | 988.1 |
| 20260503000026 | 6 | 255 | 6.4 | 0.0 | 0.00 | 0.00 | 0.00 | 52 | 988.1 |
| 20260502234509 | 7 | 274 | 8.0 | 0.0 | 0.00 | 0.00 | 0.00 | 43 | 987.9 |
| 20260502233020 | 7 | 267 | 11.3 | 0.0 | 0.00 | 0.00 | 0.00 | 44 | 987.9 |
| 20260502231509 | 7 | 269 | 12.9 | 0.0 | 0.00 | 0.00 | 0.00 | 44 | 987.9 |
| 20260502230031 | 7 | 271 | 16.1 | 0.0 | 0.00 | 0.00 | 0.00 | 44 | 987.9 |
| 20260502224509 | 7 | 274 | 16.1 | 0.0 | 0.00 | 0.00 | 0.00 | 42 | 988.4 |
| 20260502223027 | 8 | 271 | 17.7 | 0.0 | 0.00 | 0.00 | 0.00 | 43 | 989.1 |
| 20260502221509 | 8 | 272 | 19.3 | 0.0 | 0.00 | 0.00 | 0.00 | 43 | 989.0 |
| 20260502220027 | 8 | 271 | 19.3 | 0.0 | 0.00 | 0.00 | 0.00 | 43 | 989.0 |
| 20260502214509 | 8 | 271 | 19.3 | 0.0 | 0.00 | 0.00 | 0.00 | 46 | 989.1 |
| 20260502213026 | 8 | 274 | 16.1 | 0.0 | 0.00 | 0.00 | 0.00 | 42 | 988.8 |
| 20260502211509 | 8 | 270 | 16.1 | 0.0 | 0.00 | 0.00 | 0.00 | 42 | 988.8 |
| 20260502210030 | 8 | 268 | 16.1 | 0.0 | 0.00 | 0.00 | 0.00 | 42 | 988.8 |
| 20260502204509 | 8 | 265 | 16.1 | 0.0 | 0.00 | 0.00 | 0.00 | 42 | 989.1 |
| 20260502203026 | 8 | 267 | 17.7 | 0.0 | 0.00 | 0.00 | 0.00 | 39 | 989.6 |
| 20260502201509 | 8 | 268 | 19.3 | 0.0 | 0.00 | 0.00 | 0.00 | 39 | 989.6 |
| 20260502200029 | 8 | 269 | 17.7 | 0.0 | 0.00 | 0.00 | 0.00 | 39 | 989.6 |
| 20260502194509 | 8 | 271 | 17.7 | 0.0 | 0.00 | 0.00 | 0.00 | 42 | 989.9 |
| 20260502193020 | 8 | 273 | 19.3 | 0.0 | 0.00 | 0.00 | 0.00 | 42 | 989.9 |
| 20260502191509 | 8 | 275 | 19.3 | 0.0 | 0.00 | 0.00 | 0.00 | 42 | 989.9 |
| 20260502190030 | 7 | 275 | 19.3 | 0.0 | 0.00 | 0.00 | 0.00 | 42 | 989.9 |
| 20260502184509 | 7 | 276 | 19.3 | 0.0 | 0.00 | 0.00 | 0.00 | 45 | 989.8 |
| 20260502183027 | 8 | 280 | 17.7 | 0.0 | 0.00 | 0.00 | 0.00 | 44 | 989.8 |
| 20260502181508 | 8 | 279 | 17.7 | 0.0 | 0.00 | 0.00 | 0.00 | 44 | 989.8 |
| 20260502163027 | 7 | 275 | 12.9 | 0.0 | 0.00 | 0.00 | 0.00 | 43 | 989.5 |
| 20260502161509 | 6 | 276 | 12.9 | 0.0 | 0.00 | 0.00 | 0.00 | 43 | 989.4 |
| 20260502151510 | 5 | 285 | 9.7 | 0.0 | 0.00 | 0.00 | 0.00 | 50 | 989.5 |
| 20260502123026 | 1 | 313 | 6.4 | 0.0 | 0.00 | 0.00 | 0.00 | 79 | 989.9 |
| 20260502121509 | 1 | 317 | 8.0 | 0.0 | 0.00 | 0.00 | 0.00 | 79 | 989.9 |
| 20260502114509 | 0 | 301 | 6.4 | 0.0 | 0.00 | 0.00 | 0.00 | 83 | 989.6 |
| 20260502113028 | 0 | 279 | 3.2 | 0.0 | 0.00 | 0.00 | 0.00 | 83 | 989.6 |
| 20260502111509 | 0 | 261 | 3.2 | 0.0 | 0.00 | 0.00 | 0.00 | 83 | 989.6 |
| 20260502110031 | 0 | 262 | 4.8 | 0.0 | 0.00 | 0.00 | 0.00 | 83 | 989.6 |
| 20260502104509 | 0 | 253 | 4.8 | 0.0 | 0.00 | 0.00 | 0.00 | 82 | 989.4 |
| 20260502103026 | 0 | 252 | 3.2 | 0.0 | 0.00 | 0.00 | 0.00 | 87 | 989.7 |
| 20260502101509 | 0 | 246 | 3.2 | 0.0 | 0.00 | 0.00 | 0.00 | 87 | 989.7 |
| 20260502091509 | 0 | 262 | 4.8 | 0.0 | 0.00 | 0.00 | 0.00 | 88 | 989.2 |
| 20260502071509 | 0 | 291 | 6.4 | 0.0 | 0.00 | 0.00 | 0.00 | 80 | 988.3 |
| 20260502070027 | 0 | 299 | 6.4 | 0.0 | 0.00 | 0.00 | 0.00 | 80 | 988.3 |
| 20260502064509 | 0 | 299 | 6.4 | 0.0 | 0.00 | 0.00 | 0.00 | 77 | 989.5 |
| 20260502063027 | 0 | 299 | 6.4 | 0.0 | 0.00 | 0.00 | 0.00 | 78 | 989.4 |
| 20260502061509 | 0 | 294 | 6.4 | 0.0 | 0.00 | 0.00 | 0.00 | 78 | 989.4 |
| 20260502060033 | 0 | 297 | 6.4 | 0.0 | 0.00 | 0.00 | 0.00 | 78 | 989.4 |
| 20260502054509 | 0 | 306 | 6.4 | 0.0 | 0.00 | 0.00 | 0.00 | 74 | 988.5 |
| 20260502053027 | 0 | 302 | 8.0 | 0.0 | 0.00 | 0.00 | 0.00 | 77 | 988.9 |
| 20260502051509 | 0 | 302 | 8.0 | 0.0 | 0.00 | 0.00 | 0.00 | 77 | 988.9 |
| 20260502050031 | 0 | 308 | 8.0 | 0.0 | 0.00 | 0.00 | 0.00 | 77 | 988.9 |
| 20260502044510 | 1 | 308 | 8.0 | 0.0 | 0.00 | 0.00 | 0.00 | 70 | 988.5 |
| 20260502043026 | 1 | 323 | 8.0 | 0.0 | 0.00 | 0.00 | 0.00 | 71 | 988.6 |
| 20260502041509 | 1 | 326 | 9.7 | 0.0 | 0.00 | 0.00 | 0.00 | 71 | 988.6 |
| 20260502040028 | 1 | 320 | 11.3 | 0.0 | 0.00 | 0.00 | 0.00 | 71 | 988.6 |
| 20260502034509 | 1 | 313 | 11.3 | 0.0 | 0.00 | 0.00 | 0.00 | 65 | 988.1 |